When you browse on this site, cookies collect data to enhance your experience and personalize the content and advertising you see.
Visit our Privacy Policy to learn more. By continuing to use the site, you agree to this use of cookies and data.
  • En España
  • Lista de países
  • Para 7 días
  • Temperatura del agua
  • El tiempo en el mapa
  • Informadores
  • user-avatar
    Iniciar sesión

    Tiempo cada hora La Unión

    Hoy, 27 Enero, Lunes

    Tiempo Temperatura Precipitaciones Viento Presión Humedad
    00:00 +10°C° 0 mm 0 mps 760 mmHg 76%
    01:00 +9°C° 0 mm 0 mps 760 mmHg 84%
    02:00 +9°C° 0 mm 0 mps 760 mmHg 86%
    03:00 +8°C° 0 mm 0 mps 760 mmHg 89%
    04:00 +8°C° 0 mm 0 mps 760 mmHg 92%
    05:00 +9°C° 0 mm 0 mps 759 mmHg 82%
    06:00 +11°C° 0 mm 0 mps 759 mmHg 72%
    07:00 +14°C° 0 mm 1 mps 759 mmHg 62%
    08:00 +18°C° 0 mm 1 mps 758 mmHg 51%
    09:00 +22°C° 0 mm 1 mps 758 mmHg 40%
    10:00 +25°C° 0 mm 1 mps 758 mmHg 29%
    11:00 +27°C° 0 mm 1 mps 758 mmHg 27%
    12:00 +28°C° 0 mm 1 mps 758 mmHg 24%
    13:00 +30°C° 0 mm 1 mps 757 mmHg 22%
    14:00 +30°C° 0 mm 2 mps 757 mmHg 27%
    15:00 +29°C° 0 mm 2 mps 757 mmHg 31%
    16:00 +29°C° 0 mm 3 mps 756 mmHg 36%
    17:00 +27°C° 0 mm 2 mps 756 mmHg 47%
    18:00 +25°C° 0 mm 2 mps 757 mmHg 57%
    19:00 +21°C° 0 mm 2 mps 757 mmHg 68%
    20:00 +21°C° 0 mm 1 mps 757 mmHg 75%
    21:00 +20°C° 0 mm 1 mps 756 mmHg 82%
    22:00 +18°C° 0 mm 1 mps 756 mmHg 89%
    23:00 +16°C° 0.1 mm 0 mps 756 mmHg 89%

    Mañana, 28 Enero, Martes

    Tiempo Temperatura Precipitaciones Viento Presión Humedad
    00:00 +16°C° 0.1 mm 0 mps 755 mmHg 90%
    01:00 +16°C° 0.1 mm 0 mps 755 mmHg 90%
    02:00 +16°C° 0.1 mm 0 mps 755 mmHg 92%
    03:00 +16°C° 0.1 mm 0 mps 755 mmHg 94%
    04:00 +18°C° 0.1 mm 1 mps 754 mmHg 96%
    05:00 +18°C° 0 mm 1 mps 755 mmHg 94%
    06:00 +18°C° 0 mm 1 mps 755 mmHg 91%
    07:00 +17°C° 0 mm 2 mps 755 mmHg 89%
    08:00 +18°C° 0 mm 2 mps 755 mmHg 78%
    09:00 +18°C° 0 mm 2 mps 756 mmHg 68%
    10:00 +19°C° 0 mm 2 mps 756 mmHg 57%
    11:00 +20°C° 0 mm 2 mps 756 mmHg 52%
    12:00 +20°C° 0 mm 3 mps 757 mmHg 48%
    13:00 +21°C° 0 mm 3 mps 757 mmHg 43%
    14:00 +21°C° 0 mm 3 mps 757 mmHg 41%
    15:00 +21°C° 0 mm 3 mps 757 mmHg 40%
    16:00 +21°C° 0 mm 4 mps 757 mmHg 38%
    17:00 +19°C° 0 mm 3 mps 758 mmHg 44%
    18:00 +17°C° 0 mm 2 mps 758 mmHg 50%
    19:00 +15°C° 0 mm 2 mps 759 mmHg 56%
    20:00 +14°C° 0 mm 2 mps 759 mmHg 63%
    21:00 +12°C° 0 mm 1 mps 759 mmHg 71%
    22:00 +10°C° 0 mm 1 mps 760 mmHg 79%
    23:00 +10°C° 0 mm 1 mps 760 mmHg 83%

    Pasado mañana, 29 Enero, Miércoles

    Tiempo Temperatura Precipitaciones Viento Presión Humedad
    00:00 +9°C° 0 mm 1 mps 760 mmHg 88%
    01:00 +8°C° 0 mm 1 mps 760 mmHg 93%
    02:00 +8°C° 0 mm 1 mps 760 mmHg 95%
    03:00 +8°C° 0 mm 1 mps 760 mmHg 96%
    04:00 +7°C° 0 mm 1 mps 760 mmHg 98%
    05:00 +9°C° 0 mm 1 mps 761 mmHg 89%
    06:00 +9°C° 0 mm 2 mps 761 mmHg 81%
    07:00 +10°C° 0 mm 2 mps 761 mmHg 73%
    08:00 +13°C° 0 mm 2 mps 760 mmHg 63%
    09:00 +15°C° 0 mm 2 mps 760 mmHg 53%
    10:00 +17°C° 0 mm 2 mps 760 mmHg 43%
    11:00 +19°C° 0 mm 2 mps 760 mmHg 39%
    12:00 +20°C° 0 mm 2 mps 760 mmHg 35%
    13:00 +23°C° 0 mm 2 mps 759 mmHg 30%
    14:00 +23°C° 0 mm 2 mps 759 mmHg 31%
    15:00 +22°C° 0 mm 3 mps 759 mmHg 31%
    16:00 +22°C° 0 mm 3 mps 759 mmHg 31%
    17:00 +20°C° 0 mm 2 mps 759 mmHg 40%
    18:00 +18°C° 0 mm 2 mps 759 mmHg 49%
    19:00 +16°C° 0 mm 2 mps 760 mmHg 57%
    20:00 +13°C° 0 mm 1 mps 760 mmHg 67%
    21:00 +11°C° 0 mm 1 mps 760 mmHg 76%
    22:00 +9°C° 0 mm 1 mps 760 mmHg 85%
    23:00 +9°C° 0 mm 1 mps 760 mmHg 89%

    30 Enero, Jueves

    Tiempo Temperatura Precipitaciones Viento Presión Humedad
    00:00 +8°C° 0 mm 1 mps 760 mmHg 92%
    01:00 +7°C° 0 mm 1 mps 759 mmHg 96%
    02:00 +6°C° 0 mm 0 mps 759 mmHg 97%
    03:00 +6°C° 0 mm 0 mps 759 mmHg 97%
    04:00 +5°C° 0 mm 0 mps 759 mmHg 98%
    05:00 +7°C° 0 mm 0 mps 759 mmHg 91%
    06:00 +9°C° 0 mm 0 mps 759 mmHg 84%
    07:00 +11°C° 0 mm 1 mps 759 mmHg 78%
    08:00 +15°C° 0 mm 1 mps 758 mmHg 65%
    09:00 +19°C° 0 mm 1 mps 758 mmHg 52%
    10:00 +22°C° 0 mm 1 mps 758 mmHg 39%
    11:00 +24°C° 0 mm 1 mps 758 mmHg 37%
    12:00 +26°C° 0 mm 1 mps 758 mmHg 35%
    13:00 +28°C° 0 mm 1 mps 757 mmHg 33%
    14:00 +27°C° 0 mm 2 mps 757 mmHg 35%
    15:00 +27°C° 0 mm 2 mps 757 mmHg 37%
    16:00 +27°C° 0 mm 2 mps 757 mmHg 38%
    17:00 +25°C° 0 mm 2 mps 757 mmHg 48%
    18:00 +23°C° 0 mm 2 mps 757 mmHg 58%
    19:00 +21°C° 0 mm 1 mps 757 mmHg 68%
    20:00 +19°C° 0 mm 1 mps 758 mmHg 76%
    21:00 +16°C° 0 mm 1 mps 758 mmHg 85%
    22:00 +13°C° 0 mm 0 mps 758 mmHg 94%
    23:00 +13°C° 0 mm 0 mps 758 mmHg 95%

    31 Enero, Viernes

    Tiempo Temperatura Precipitaciones Viento Presión Humedad
    00:00 +13°C° 0 mm 0 mps 758 mmHg 97%
    01:00 +12°C° 0 mm 0 mps 757 mmHg 98%
    02:00 +12°C° 0 mm 0 mps 757 mmHg 98%
    03:00 +12°C° 0 mm 0 mps 757 mmHg 98%
    04:00 +12°C° 0 mm 0 mps 757 mmHg 98%
    05:00 +14°C° 0 mm 0 mps 757 mmHg 93%
    06:00 +15°C° 0 mm 0 mps 757 mmHg 89%
    07:00 +16°C° 0 mm 0 mps 757 mmHg 84%
    08:00 +19°C° 0 mm 0 mps 757 mmHg 71%
    09:00 +23°C° 0 mm 0 mps 756 mmHg 58%
    10:00 +28°C° 0 mm 1 mps 756 mmHg 45%
    11:00 +29°C° 0 mm 1 mps 756 mmHg 42%
    12:00 +30°C° 0 mm 1 mps 756 mmHg 39%
    13:00 +31°C° 0 mm 1 mps 755 mmHg 36%
    14:00 +30°C° 0 mm 2 mps 755 mmHg 39%
    15:00 +29°C° 0 mm 2 mps 755 mmHg 42%
    16:00 +28°C° 0 mm 3 mps 755 mmHg 44%
    17:00 +26°C° 0 mm 2 mps 755 mmHg 54%
    18:00 +23°C° 0 mm 2 mps 755 mmHg 64%
    19:00 +21°C° 0 mm 1 mps 755 mmHg 73%
    20:00 +19°C° 0 mm 1 mps 755 mmHg 81%
    21:00 +18°C° 0 mm 1 mps 754 mmHg 89%
    22:00 +14°C° 0 mm 0 mps 754 mmHg 97%
    23:00 +15°C° 0 mm 1 mps 754 mmHg 98%

    1 Febrero, Sábado

    Tiempo Temperatura Precipitaciones Viento Presión Humedad
    00:00 +15°C° 0 mm 1 mps 753 mmHg 98%
    01:00 +15°C° 0 mm 1 mps 753 mmHg 99%
    02:00 +15°C° 0 mm 1 mps 753 mmHg 97%
    03:00 +16°C° 0 mm 1 mps 753 mmHg 96%
    04:00 +16°C° 0 mm 2 mps 752 mmHg 95%
    05:00 +17°C° 0.1 mm 2 mps 752 mmHg 91%
    06:00 +17°C° 0.1 mm 3 mps 752 mmHg 88%
    07:00 +18°C° 0.1 mm 3 mps 752 mmHg 84%
    08:00 +18°C° 0.9 mm 3 mps 752 mmHg 88%
    09:00 +17°C° 0.9 mm 3 mps 752 mmHg 92%
    10:00 +17°C° 0.9 mm 2 mps 752 mmHg 95%
    11:00 +17°C° 1.9 mm 2 mps 752 mmHg 96%
    12:00 +16°C° 1.9 mm 1 mps 753 mmHg 96%
    13:00 +16°C° 1.9 mm 1 mps 753 mmHg 97%
    14:00 +16°C° 0.3 mm 1 mps 753 mmHg 96%
    15:00 +15°C° 0.3 mm 1 mps 754 mmHg 95%
    16:00 +15°C° 0.3 mm 1 mps 754 mmHg 94%
    17:00 +15°C° 0.1 mm 1 mps 754 mmHg 95%
    18:00 +14°C° 0.1 mm 1 mps 755 mmHg 96%
    19:00 +13°C° 0.1 mm 0 mps 755 mmHg 97%
    20:00 +12°C° 0 mm 0 mps 755 mmHg 98%
    21:00 +11°C° 0 mm 0 mps 756 mmHg 98%
    22:00 +11°C° 0 mm 0 mps 756 mmHg 98%
    23:00 +10°C° 0 mm 0 mps 756 mmHg 98%
    Mostrar más